Regional Weather Roundup
Issued by NWS

Home | Current Version | Previous Version | Text Only | Print | Product List | Glossary Off
Versions: 1 2 3 4 5 6 7 8 9 10 11 12 13 14 15 16 17 18 19 20 21 22 23 24 25 26 27 28 29 30 31 32 33 34 35 36 37 38 39 40 41 42 43 44 45 46 47 48 49 50

000
ASUS43 KOAX 010510
RWRNE

WEATHER ROUNDUP FOR NEBRASKA
NATIONAL WEATHER SERVICE OMAHA NE
1200 AM CDT WED JUL 01 2015

NOTES: SATELLITE DATA IS BEING USED TO AUGMENT CLOUD COVER ABOVE
       12000 FEET.
       "FAIR" INDICATES FEW OR NO CLOUDS BELOW 12,000 FEET WITH NO
       SIGNIFICANT WEATHER AND/OR OBSTRUCTIONS TO VISIBILITY.

  * THESE STATIONS DO NOT REPORT WEATHER SUCH AS RAIN...SNOW OR FOG.

NEZ001>004-019>022-054>056-010600-
NEBRASKA PANHANDLE

CITY           SKY/WX    TMP DP  RH WIND       PRES   REMARKS
KIMBALL          N/A    N/A N/A N/A MISG        N/A
$$

NEZ057>060-069>072-079>082-010600-
SOUTHWEST NEBRASKA

CITY           SKY/WX    TMP DP  RH WIND       PRES   REMARKS
LEXINGTON      CLOUDY    76  67  73 E8        29.84S
OGALLALA       TSTM      77  61  58 E16G39    29.89R
$$

NEZ005>010-023>029-035>040-094-010600-
NORTH CENTRAL NEBRASKA

CITY           SKY/WX    TMP DP  RH WIND       PRES   REMARKS
AINSWORTH      MOCLDY    67  61  81 SE9       29.90S
O`NEILL        MOCLDY    69  64  83 S13       29.88F
THEDFORD       CLEAR     70  65  84 E9        29.91R
$$

NEZ041-046>049-061>064-073>077-083>087-010600-
SOUTH CENTRAL NEBRASKA

CITY           SKY/WX    TMP DP  RH WIND       PRES   REMARKS
AURORA         CLOUDY    73  65  76 E13       29.86S
HEBRON         CLOUDY    76  66  71 E9        29.82F
HOLDREGE       MOCLDY    75  65  70 E7        29.83S
YORK           CLOUDY    72  64  78 E18       29.87S
$$

NEZ011>018-030>034-042>045-010600-
NORTHEAST NEBRASKA

CITY           SKY/WX    TMP DP  RH WIND       PRES   REMARKS
NORFOLK        LGT RAIN  68  65  90 SE14      29.89F
ALBION         CLOUDY    67  62  83 SE8       29.90F
BLAIR          CLOUDY    68  65  90 S6        29.92R
FREMONT        TSTM      70  67  90 SW5       29.96R
WAYNE          CLOUDY    68  66  94 CALM      29.91R
$$

NEZ050>053-065>068-078-088>093-010600-
SOUTHEAST NEBRASKA

CITY           SKY/WX    TMP DP  RH WIND       PRES   REMARKS
OMAHA EPPLEY   TSTM      71  68  90 S8        29.91F
BEATRICE       MOCLDY    75  65  71 E10G16    29.84F
NEBRASKA CITY  CLOUDY    72  62  71 E8        29.90R
PLATTSMOUTH    CLOUDY    69  64  85 CALM      29.93R
$$

NEZ044-045-051>053-067-010600-
OMAHA AREA

CITY           SKY/WX    TMP DP  RH WIND       PRES   REMARKS
OMAHA EPPLEY   TSTM      71  68  90 S8        29.91F
BLAIR          CLOUDY    68  65  90 S6        29.92R
FREMONT        TSTM      70  67  90 SW5       29.96R
MILLARD        CLOUDY    70  67  88 E8        29.91R
OFFUTT AFB     LGT RAIN  70  66  89 W2        29.94R FOG
PLATTSMOUTH    CLOUDY    69  64  85 CALM      29.93R
WAHOO          LGT RAIN  70  66  89 N6        29.95R
$$


USA.gov is the U.S. government's official web portal to all federal, state and local government web resources and services.